[[{"header":{"parameterUnit":"m.s-1","parameterCategory":1,"la1":30.2991,"la2":30.254,"lo1":-89.0895,"lo2":-89.0444,"dy":0.0017,"dx":0.0017,"nx":28,"ny":28,"refTime":"2025-06-10T21:00:00:Z","depth":0,"parameterNumber":2,"parameterNumberName":"U-component_of_WINDS"},"data":[0,0,0,0,0,0,0,0,0,0,0,0,0,0,0,0,0,0,0,0,0,0,0,0,0,0,0,0,0,0,0,0,0,0,0,0,0,0,0,0,0,0,0,0,0,0,0,0,0,0,0,0,0,0,0,0,0,0,0.6848,0.6848,0,0.6856,0.6856,0.6856,0.6824,0.6823,0.6822,0.6821,0.6828,0.6829,0.683,0,0,0,0,0,0,0,0,0,0,0,0,0,0.6802,0.6803,0.6848,0.6848,0.6848,0.6856,0.6856,0.6856,0.6824,0.6823,0.6822,0.6821,0.6828,0.6829,0.6831,0,0,0,0,0,0,0,0,0,0,0,0,0,0.6817,0.6803,0.6848,0.6833,0.6832,0.6856,0.6856,0.6856,0.6825,0.6823,0.6822,0.682,0.6828,0.6829,0.6831,0.6869,0,0,0.6836,0.6836,0,0,0,0,0,0,0,0,0.6816,0.6819,0.6835,0.6834,0.6833,0.6838,0.6843,0.686,0.6825,0.6827,0.6821,0.682,0.6832,0.6834,0.6838,0.6869,0.687,0.6836,0.6837,0.6837,0.6838,0,0,0,0,0,0,0,0.6815,0.6818,0.6851,0.6835,0.6834,0.6825,0.6826,0.6846,0.6838,0.6827,0.6825,0.6826,0.6832,0.6837,0.6838,0.687,0.6836,0.6837,0.6838,0.6839,0.6933,0.6934,0,0,0,0,0,0,0.6816,0.6818,0.6851,0.6851,0.6821,0.6827,0.6828,0.6837,0.6837,0.6836,0.6827,0.6825,0.6835,0.6836,0.6838,0.6883,0.6837,0.6839,0.684,0.6931,0.6933,0.6935,0,0,0,0,0,0,0.6816,0.682,0.685,0.6834,0.6837,0.683,0.684,0.6838,0.6844,0.6838,0.6836,0.6834,0.6834,0.6836,0.6862,0.6883,0.684,0.6841,0.6929,0.6932,0.6934,0.6974,0,0,0,0,0,0,0.6814,0.682,0.6835,0.6834,0.6838,0.6874,0.6842,0.684,0.6847,0.6843,0.6844,0.6842,0.6833,0.686,0.6863,0.6885,0.6842,0.6927,0.693,0.6933,0.6971,0.6977,0.6983,0,0,0,0,0,0.6813,0.6845,0.6836,0.684,0.6857,0.6876,0.6878,0.6866,0.6848,0.6863,0.6859,0.6842,0.688,0.6862,0.6866,0.6889,0.6926,0.693,0.6933,0.6968,0.6976,0.6983,0,0,0,0,0,0,0.6847,0.6845,0.6834,0.6867,0.6872,0.687,0.6889,0.6875,0.6884,0.6881,0.6866,0.6866,0.6894,0.6894,0.6874,0.6926,0.69,0.6904,0.6925,0.6933,0.6939,0.6939,0.6844,0,0,0,0,0,0.6859,0.6875,0.6872,0.6901,0.6904,0.6896,0.6904,0.6895,0.6899,0.69,0.6898,0.6902,0.6915,0.6924,0.6935,0.697,0.697,0.6987,0.6993,0.6999,0.7003,0.7022,0.7029,0.6946,0.6946,0.6946,0,0,0.6883,0.6884,0.6895,0.6908,0.6911,0.6928,0.6898,0.6917,0.6929,0.6903,0.6928,0.6926,0.6929,0.696,0.6974,0.6961,0.7026,0.7003,0.7007,0.7009,0.7026,0.7034,0.7041,0.6948,0.6948,0.6948,0,0,0.6935,0.6938,0.6963,0.6966,0.697,0.6964,0.697,0.6971,0.6969,0.6993,0.6974,0.6988,0.701,0.7014,0.7018,0.7071,0.7056,0.7075,0.7108,0.7127,0.7133,0.7139,0.7158,0.7166,0.7079,0.708,0.708,0,0.6965,0.699,0.6977,0.6997,0.7004,0.6982,0.7007,0.701,0.7018,0.7023,0.7008,0.7035,0.7036,0.7067,0.708,0.7085,0.7091,0.7076,0.7133,0.7139,0.7144,0.7163,0.717,0.7082,0.7082,0.7081,0.7081,0,0.7025,0.7043,0.7063,0.7071,0.708,0.7103,0.7093,0.7103,0.7093,0.7088,0.7113,0.7113,0.7124,0.7131,0.7121,0.7161,0.7153,0.7136,0.711,0.7155,0.7172,0.7179,0.7085,0.7084,0.7084,0.7083,0,0,0.7101,0.7102,0.711,0.7113,0.7116,0.7129,0.715,0.7162,0.7171,0.7177,0.7194,0.7213,0.7198,0.7203,0.7193,0.7209,0.7252,0.719,0.719,0.7202,0.7297,0.731,0.7319,0.7242,0.7243,0.7244,0.7297,0,0.7152,0.719,0.7179,0.7216,0.7232,0.7211,0.723,0.7233,0.7229,0.7242,0.7237,0.7252,0.723,0.7233,0.7248,0.7244,0.7271,0.724,0.7258,0.7259,0.7259,0.7327,0.7342,0.7391,0.7303,0.7304,0.7305,0,0.7218,0.7228,0.7267,0.7267,0.7274,0.7291,0.73,0.7312,0.7316,0.7312,0.7318,0.7305,0.7325,0.7298,0.7326,0.7305,0.7312,0.7311,0.7313,0.7315,0.7285,0.7332,0.7407,0.7415,0.7315,0.7315,0.7314,0,0.727,0.7292,0.7318,0.7322,0.7323,0.7336,0.7337,0.7339,0.7346,0.7354,0.7359,0.7369,0.7375,0.7383,0.7372,0.7354,0.7402,0.7374,0.7399,0.74,0.7411,0.7411,0.7489,0.7414,0.7414,0.7414,0.7414,0,0.733,0.7355,0.7342,0.7358,0.7385,0.7372,0.7399,0.7397,0.7399,0.7415,0.7396,0.7411,0.7396,0.7409,0.7401,0.7425,0.7428,0.7425,0.7423,0.7427,0.7428,0.7432,0.7429,0.7416,0.7415,0.7415,0.7415,0,0.7392,0.7385,0.7412,0.7411,0.7411,0.7432,0.743,0.7445,0.744,0.7459,0.7463,0.7455,0.7469,0.746,0.7474,0.7468,0.7501,0.7493,0.75,0.7499,0.7525,0.7523,0.7609,0.762,0.7537,0.7538,0.7539,0,0.7431,0.745,0.7451,0.7461,0.7463,0.7478,0.7486,0.7473,0.7482,0.7487,0.7501,0.7514,0.7524,0.7548,0.7543,0.7554,0.7547,0.7577,0.7549,0.7553,0.7549,0.7548,0.755,0.7583,0.7584,0.7584,0.7585,0,0.7502,0.7497,0.7509,0.7521,0.7531,0.7539,0.7545,0.7553,0.754,0.7551,0.7566,0.7574,0.7589,0.7602,0.7611,0.7611,0.7596,0.7594,0.76,0.7606,0.7609,0.7609,0.7517,0.7592,0.7591,0.7591,0.759,0.759,0.7554,0.757,0.7574,0.7588,0.7592,0.7598,0.7612,0.7609,0.7621,0.7633,0.7624,0.7642,0.7645,0.7655,0.7658,0.7671,0.7659,0.7668,0.7671,0.7674,0.7678,0.7606,0.7672,0.7672,0.7672,0.7672,0.7672,0,0.7624,0.7626,0.7639,0.7649,0.766,0.7645,0.7651,0.7662,0.7678,0.7682,0.7692,0.7709,0.7722,0.7718,0.7729,0.7741,0.7734,0.7744,0.7744,0.7744,0.7687,0.7681,0.775,0.775,0.775,0.775,0.775,0.775,0.7662,0.7689,0.7685,0.7712,0.7713,0.7731,0.7736,0.7742,0.7745,0.7765,0.7776,0.7773,0.7774,0.7785,0.7796,0.7795,0.78,0.7813,0.7809,0.7756,0.7748,0.7741,0.7735,0.7814,0.7814,0.7865,0.7865,0.7866]},{"header":{"parameterUnit":"m.s-1","parameterCategory":1,"la1":30.2991,"la2":30.254,"lo1":-89.0895,"lo2":-89.0444,"dy":0.0017,"dx":0.0017,"nx":28,"ny":28,"refTime":"2025-06-10T21:00:00:Z","depth":0,"parameterNumber":3,"parameterNumberName":"V-component_of_WINDS"},"data":[0,0,0,0,0,0,0,0,0,0,0,0,0,0,0,0,0,0,0,0,0,0,0,0,0,0,0,0,0,0,0,0,0,0,0,0,0,0,0,0,0,0,0,0,0,0,0,0,0,0,0,0,0,0,0,0,0,0,-0.0469,-0.0469,0,-0.0514,-0.0515,-0.0515,-0.0603,-0.0605,-0.0607,-0.0608,-0.0653,-0.0652,-0.0652,0,0,0,0,0,0,0,0,0,0,0,0,0,-0.0455,-0.0455,-0.0469,-0.0469,-0.047,-0.0514,-0.0515,-0.0516,-0.0603,-0.0605,-0.0607,-0.0609,-0.0653,-0.0652,-0.0652,0,0,0,0,0,0,0,0,0,0,0,0,0,-0.0477,-0.0455,-0.0469,-0.0519,-0.0524,-0.0514,-0.0515,-0.0516,-0.0603,-0.0605,-0.0608,-0.061,-0.0653,-0.0652,-0.0652,-0.0596,0,0,-0.065,-0.065,0,0,0,0,0,0,0,0,-0.0476,-0.0477,-0.0511,-0.0515,-0.0521,-0.0556,-0.0527,-0.0543,-0.0602,-0.0573,-0.0608,-0.0611,-0.0618,-0.0621,-0.0623,-0.0598,-0.06,-0.065,-0.0649,-0.0649,-0.0649,0,0,0,0,0,0,0,-0.0474,-0.0476,-0.0487,-0.0511,-0.0517,-0.0539,-0.0544,-0.053,-0.058,-0.0575,-0.0582,-0.0586,-0.0621,-0.0624,-0.0625,-0.0601,-0.065,-0.0649,-0.0649,-0.0649,-0.0532,-0.0529,0,0,0,0,0,0,-0.0465,-0.0474,-0.0485,-0.0488,-0.0504,-0.0537,-0.0543,-0.0542,-0.0581,-0.0589,-0.0584,-0.059,-0.0624,-0.0626,-0.0627,-0.0564,-0.0649,-0.0648,-0.0648,-0.0534,-0.0531,-0.0528,0,0,0,0,0,0,-0.0465,-0.0466,-0.0483,-0.0483,-0.0487,-0.0534,-0.0532,-0.0542,-0.0544,-0.0587,-0.0596,-0.0577,-0.0626,-0.0628,-0.0603,-0.0566,-0.0648,-0.0648,-0.0538,-0.0533,-0.053,-0.0437,0,0,0,0,0,0,-0.0464,-0.0465,-0.0444,-0.0482,-0.0486,-0.0459,-0.053,-0.0541,-0.0543,-0.0551,-0.0583,-0.0591,-0.0628,-0.0604,-0.0602,-0.0567,-0.0647,-0.0541,-0.0536,-0.0531,-0.0443,-0.043,-0.0419,0,0,0,0,0,-0.0463,-0.0416,-0.0443,-0.0444,-0.0462,-0.0457,-0.0459,-0.0503,-0.054,-0.0519,-0.0547,-0.059,-0.0571,-0.06,-0.06,-0.0564,-0.0544,-0.0537,-0.0531,-0.0449,-0.0433,-0.0419,0,0,0,0,0,0,-0.0372,-0.0422,-0.0452,-0.0416,-0.0431,-0.0472,-0.0447,-0.0485,-0.049,-0.0498,-0.0552,-0.0558,-0.0526,-0.0543,-0.0575,-0.0512,-0.0564,-0.0558,-0.0501,-0.0486,-0.0474,-0.047,-0.0647,0,0,0,0,0,-0.0348,-0.034,-0.0384,-0.0348,-0.0354,-0.0399,-0.0398,-0.0431,-0.0449,-0.0456,-0.0482,-0.0497,-0.0495,-0.0492,-0.0492,-0.0447,-0.0454,-0.0422,-0.0409,-0.0399,-0.0392,-0.0369,-0.0354,-0.0508,-0.0508,-0.0508,0,0,-0.0298,-0.0324,-0.0315,-0.033,-0.0346,-0.0336,-0.0404,-0.039,-0.0383,-0.0454,-0.0432,-0.0451,-0.0472,-0.0437,-0.0422,-0.045,-0.0352,-0.0391,-0.0383,-0.0381,-0.0361,-0.0346,-0.0333,-0.0504,-0.0505,-0.0505,0,0,-0.02,-0.022,-0.0192,-0.0206,-0.023,-0.0261,-0.0254,-0.0288,-0.0304,-0.0284,-0.0336,-0.0328,-0.0323,-0.0336,-0.0341,-0.0249,-0.0288,-0.0248,-0.0183,-0.0159,-0.0147,-0.0136,-0.0102,-0.009,-0.0241,-0.0241,-0.0241,0,-0.0134,-0.0122,-0.0172,-0.0155,-0.0159,-0.0224,-0.0195,-0.0207,-0.0229,-0.023,-0.0261,-0.0256,-0.0275,-0.0242,-0.022,-0.0223,-0.0216,-0.0244,-0.0145,-0.0135,-0.0126,-0.0094,-0.0081,-0.0236,-0.0237,-0.0237,-0.0238,0,-0.0039,-0.003,-0.0004,-0.0024,-0.0026,-0.0003,-0.0049,-0.0045,-0.0078,-0.0104,-0.0082,-0.0107,-0.0113,-0.0108,-0.014,-0.0081,-0.0097,-0.0135,-0.0189,-0.0105,-0.0076,-0.0064,-0.0228,-0.023,-0.0232,-0.0233,0,0,0.0116,0.0067,0.0078,0.0068,0.0036,0.0043,0.0063,0.0056,0.0061,0.0048,0.0064,0.0069,0.0033,0.0027,-0.0007,0.0013,0.0089,-0.0028,-0.0029,-0.0004,0.0155,0.0186,0.02,0.0062,0.0064,0.0066,0.0157,0,0.0208,0.0239,0.0194,0.0236,0.0244,0.0182,0.02,0.0183,0.0158,0.0162,0.0134,0.014,0.0091,0.0087,0.0104,0.0077,0.0121,0.0069,0.0078,0.0079,0.0087,0.0215,0.0248,0.0335,0.0168,0.017,0.0171,0,0.0319,0.0311,0.0353,0.0319,0.0321,0.0338,0.0328,0.0332,0.0312,0.0292,0.0285,0.0244,0.0262,0.0209,0.0233,0.0199,0.0199,0.0186,0.0189,0.019,0.0132,0.0221,0.0362,0.0376,0.0188,0.0187,0.0186,0,0.043,0.0429,0.0454,0.0447,0.0408,0.0421,0.0406,0.0382,0.0381,0.0373,0.0371,0.0365,0.0363,0.0359,0.0318,0.0283,0.0348,0.0291,0.0333,0.0335,0.0352,0.0352,0.0496,0.0349,0.0349,0.0349,0.0349,0,0.0539,0.0567,0.0504,0.052,0.055,0.0498,0.053,0.0508,0.0488,0.0499,0.0444,0.0456,0.04,0.0405,0.0373,0.0399,0.0398,0.0383,0.0375,0.0389,0.0392,0.0391,0.0384,0.0352,0.0352,0.0351,0.035,0,0.0669,0.0627,0.065,0.0611,0.0601,0.0626,0.0592,0.0605,0.0576,0.0591,0.0591,0.0546,0.055,0.0508,0.0504,0.0482,0.0524,0.0503,0.0531,0.0525,0.0571,0.0568,0.0721,0.074,0.058,0.0581,0.0583,0,0.0741,0.0762,0.0724,0.0727,0.0714,0.072,0.0718,0.0667,0.0668,0.0646,0.0662,0.0661,0.0658,0.0667,0.0635,0.0631,0.0612,0.0666,0.0611,0.0625,0.0615,0.0615,0.0617,0.0678,0.068,0.0682,0.0683,0,0.0876,0.0854,0.0853,0.0845,0.0844,0.0836,0.0824,0.083,0.0775,0.0778,0.0781,0.0779,0.0774,0.0774,0.0764,0.0749,0.0708,0.07,0.071,0.0726,0.0742,0.0736,0.0564,0.0698,0.0696,0.0695,0.0694,0.0694,0.098,0.0996,0.0972,0.0973,0.0958,0.0948,0.0959,0.0931,0.0932,0.0924,0.0894,0.0902,0.0881,0.0863,0.0851,0.0858,0.0832,0.0846,0.085,0.0854,0.0864,0.0739,0.0856,0.0855,0.0855,0.0854,0.0854,0,0.1113,0.1094,0.1095,0.108,0.1081,0.104,0.1025,0.1029,0.1037,0.102,0.1018,0.1021,0.1021,0.0988,0.0984,0.0996,0.0977,0.0996,0.0996,0.0993,0.0886,0.0879,0.1012,0.1012,0.1012,0.1012,0.1012,0.1012,0.1182,0.1207,0.1182,0.1199,0.118,0.1187,0.1182,0.1173,0.1159,0.1166,0.1165,0.1143,0.112,0.1113,0.1112,0.1102,0.1104,0.1131,0.1115,0.1016,0.1001,0.0986,0.0979,0.1131,0.1131,0.1221,0.1222,0.1223]}]]